• In Deutschland
  • Länderverzeichnis
  • Für 7 Tage
  • Wassertemperatur
  • Satellitenkarten
  • Wetterkarte
  • Widgets
  • user-avatar
    Anmelden

    Stündliche Wetter Innsbruck

    Heute, 26 Juli, Mittwoch

    Zeit Temperatur Niederschläge Wind Luftdruck Luftfeuchtigkeit
    00:00 +4°C° 0,4 mm 1 m/S 591 mmHg 93%
    01:00 +4°C° 0,4 mm 1 m/S 591 mmHg 93%
    02:00 +3°C° 0,4 mm 2 m/S 591 mmHg 93%
    03:00 +3°C° 0,4 mm 2 m/S 590 mmHg 93%
    04:00 +2°C° 0,4 mm 2 m/S 590 mmHg 93%
    05:00 +3°C° 1 mm 2 m/S 590 mmHg 93%
    06:00 +3°C° 1 mm 2 m/S 591 mmHg 92%
    07:00 +3°C° 1 mm 2 m/S 591 mmHg 91%
    08:00 +4°C° 1 mm 2 m/S 591 mmHg 89%
    09:00 +5°C° 1 mm 2 m/S 592 mmHg 86%
    10:00 +5°C° 1 mm 2 m/S 592 mmHg 83%
    11:00 +6°C° 0,8 mm 2 m/S 593 mmHg 82%
    12:00 +6°C° 0,8 mm 2 m/S 593 mmHg 81%
    13:00 +7°C° 0,8 mm 2 m/S 593 mmHg 80%
    14:00 +6°C° 1,2 mm 2 m/S 593 mmHg 82%
    15:00 +6°C° 1,2 mm 2 m/S 593 mmHg 83%
    16:00 +6°C° 1,2 mm 2 m/S 593 mmHg 85%
    17:00 +5°C° 1,2 mm 2 m/S 593 mmHg 87%
    18:00 +5°C° 1,2 mm 2 m/S 593 mmHg 89%
    19:00 +5°C° 1,2 mm 2 m/S 593 mmHg 91%
    20:00 +4°C° 1 mm 2 m/S 593 mmHg 92%
    21:00 +4°C° 1 mm 2 m/S 593 mmHg 93%
    22:00 +3°C° 1 mm 2 m/S 594 mmHg 94%
    23:00 +3°C° 0,2 mm 2 m/S 594 mmHg 94%

    Morgen, 27 Juli, Donnerstag

    Zeit Temperatur Niederschläge Wind Luftdruck Luftfeuchtigkeit
    00:00 +3°C° 0,2 mm 2 m/S 593 mmHg 94%
    01:00 +2°C° 0,2 mm 2 m/S 593 mmHg 94%
    02:00 +2°C° 0 mm 2 m/S 593 mmHg 93%
    03:00 +1°C° 0 mm 2 m/S 593 mmHg 93%
    04:00 +1°C° 0 mm 2 m/S 593 mmHg 92%
    05:00 +2°C° 0 mm 2 m/S 593 mmHg 87%
    06:00 +5°C° 0 mm 1 m/S 594 mmHg 83%
    07:00 +6°C° 0 mm 1 m/S 595 mmHg 78%
    08:00 +7°C° 0,3 mm 1 m/S 595 mmHg 75%
    09:00 +8°C° 0,3 mm 1 m/S 595 mmHg 73%
    10:00 +9°C° 0,3 mm 1 m/S 596 mmHg 70%
    11:00 +9°C° 0,4 mm 1 m/S 596 mmHg 71%
    12:00 +10°C° 0,4 mm 1 m/S 596 mmHg 72%
    13:00 +11°C° 0,4 mm 1 m/S 596 mmHg 73%
    14:00 +12°C° 0,1 mm 1 m/S 597 mmHg 72%
    15:00 +12°C° 0,1 mm 2 m/S 597 mmHg 71%
    16:00 +13°C° 0,1 mm 2 m/S 597 mmHg 69%
    17:00 +13°C° 0,1 mm 1 m/S 597 mmHg 74%
    18:00 +12°C° 0,1 mm 1 m/S 597 mmHg 79%
    19:00 +11°C° 0,1 mm 1 m/S 596 mmHg 84%
    20:00 +10°C° 0,1 mm 1 m/S 596 mmHg 87%
    21:00 +9°C° 0,1 mm 1 m/S 596 mmHg 90%
    22:00 +7°C° 0,1 mm 1 m/S 596 mmHg 94%
    23:00 +7°C° 0,2 mm 1 m/S 596 mmHg 94%

    übermorgen, 28 Juli, Freitag

    Zeit Temperatur Niederschläge Wind Luftdruck Luftfeuchtigkeit
    00:00 +7°C° 0,2 mm 1 m/S 595 mmHg 95%
    01:00 +6°C° 0,2 mm 1 m/S 595 mmHg 95%
    02:00 +6°C° 0 mm 1 m/S 595 mmHg 95%
    03:00 +6°C° 0 mm 1 m/S 595 mmHg 95%
    04:00 +6°C° 0 mm 1 m/S 595 mmHg 95%
    05:00 +8°C° 0 mm 1 m/S 596 mmHg 92%
    06:00 +9°C° 0 mm 1 m/S 597 mmHg 89%
    07:00 +10°C° 0 mm 1 m/S 597 mmHg 86%
    08:00 +11°C° 0,2 mm 1 m/S 598 mmHg 83%
    09:00 +12°C° 0,2 mm 1 m/S 598 mmHg 80%
    10:00 +12°C° 0,2 mm 1 m/S 599 mmHg 77%
    11:00 +13°C° 0,1 mm 1 m/S 599 mmHg 74%
    12:00 +14°C° 0,1 mm 1 m/S 600 mmHg 72%
    13:00 +15°C° 0,1 mm 2 m/S 600 mmHg 69%
    14:00 +15°C° 0,2 mm 2 m/S 600 mmHg 69%
    15:00 +15°C° 0,2 mm 2 m/S 600 mmHg 69%
    16:00 +16°C° 0,2 mm 2 m/S 600 mmHg 68%
    17:00 +15°C° 0,1 mm 2 m/S 600 mmHg 74%
    18:00 +14°C° 0,1 mm 2 m/S 600 mmHg 80%
    19:00 +13°C° 0,1 mm 1 m/S 600 mmHg 87%
    20:00 +11°C° 0 mm 1 m/S 599 mmHg 90%
    21:00 +10°C° 0 mm 1 m/S 599 mmHg 93%
    22:00 +9°C° 0 mm 1 m/S 599 mmHg 96%
    23:00 +8°C° 0 mm 1 m/S 599 mmHg 96%

    29 Juli, Samstag

    Zeit Temperatur Niederschläge Wind Luftdruck Luftfeuchtigkeit
    00:00 +8°C° 0 mm 1 m/S 599 mmHg 95%
    01:00 +8°C° 0 mm 1 m/S 599 mmHg 95%
    02:00 +8°C° 0 mm 1 m/S 599 mmHg 95%
    03:00 +8°C° 0 mm 1 m/S 599 mmHg 94%
    04:00 +8°C° 0 mm 1 m/S 599 mmHg 94%
    05:00 +9°C° 0,1 mm 1 m/S 599 mmHg 91%
    06:00 +11°C° 0,1 mm 1 m/S 600 mmHg 88%
    07:00 +12°C° 0,1 mm 1 m/S 601 mmHg 86%
    08:00 +13°C° 0,5 mm 1 m/S 601 mmHg 82%
    09:00 +14°C° 0,5 mm 1 m/S 602 mmHg 77%
    10:00 +15°C° 0,5 mm 1 m/S 602 mmHg 73%
    11:00 +15°C° 0,8 mm 1 m/S 602 mmHg 76%
    12:00 +15°C° 0,8 mm 1 m/S 602 mmHg 78%
    13:00 +14°C° 0,8 mm 1 m/S 602 mmHg 81%
    14:00 +14°C° 2 mm 1 m/S 602 mmHg 84%
    15:00 +13°C° 2 mm 1 m/S 601 mmHg 88%
    16:00 +13°C° 2 mm 1 m/S 601 mmHg 92%
    17:00 +12°C° 3,1 mm 1 m/S 601 mmHg 93%
    18:00 +12°C° 3,1 mm 1 m/S 601 mmHg 94%
    19:00 +11°C° 3,1 mm 1 m/S 600 mmHg 96%
    20:00 +11°C° 1,4 mm 1 m/S 600 mmHg 96%
    21:00 +10°C° 1,4 mm 1 m/S 600 mmHg 95%
    22:00 +9°C° 1,4 mm 1 m/S 600 mmHg 95%
    23:00 +9°C° 0,7 mm 1 m/S 600 mmHg 95%

    30 Juli, Sonntag

    Zeit Temperatur Niederschläge Wind Luftdruck Luftfeuchtigkeit
    00:00 +9°C° 0,7 mm 1 m/S 600 mmHg 94%
    01:00 +9°C° 0,7 mm 1 m/S 600 mmHg 93%
    02:00 +9°C° 0,2 mm 1 m/S 599 mmHg 93%
    03:00 +9°C° 0,2 mm 1 m/S 599 mmHg 93%
    04:00 +9°C° 0,2 mm 1 m/S 599 mmHg 92%
    05:00 +10°C° 0 mm 1 m/S 599 mmHg 90%
    06:00 +11°C° 0 mm 1 m/S 600 mmHg 87%
    07:00 +12°C° 0 mm 1 m/S 600 mmHg 85%
    08:00 +15°C° 0,2 mm 1 m/S 601 mmHg 73%
    09:00 +18°C° 0,2 mm 1 m/S 602 mmHg 62%
    10:00 +21°C° 0,2 mm 1 m/S 603 mmHg 50%
    11:00 +21°C° 0,5 mm 1 m/S 603 mmHg 48%
    12:00 +21°C° 0,5 mm 1 m/S 603 mmHg 46%
    13:00 +21°C° 0,5 mm 2 m/S 603 mmHg 44%
    14:00 +21°C° 0,5 mm 1 m/S 603 mmHg 47%
    15:00 +21°C° 0,5 mm 1 m/S 602 mmHg 49%
    16:00 +20°C° 0,5 mm 1 m/S 602 mmHg 52%
    17:00 +19°C° 0,7 mm 1 m/S 602 mmHg 62%
    18:00 +18°C° 0,7 mm 1 m/S 601 mmHg 72%
    19:00 +14°C° 0,7 mm 0 m/S 601 mmHg 82%
    20:00 +13°C° 0,1 mm 1 m/S 600 mmHg 85%
    21:00 +12°C° 0,1 mm 1 m/S 600 mmHg 88%
    22:00 +10°C° 0,1 mm 1 m/S 600 mmHg 92%
    23:00 +10°C° 0 mm 1 m/S 600 mmHg 92%

    31 Juli, Montag

    Zeit Temperatur Niederschläge Wind Luftdruck Luftfeuchtigkeit
    00:00 +10°C° 0 mm 1 m/S 600 mmHg 92%
    01:00 +10°C° 0 mm 1 m/S 600 mmHg 92%
    02:00 +9°C° 0 mm 1 m/S 599 mmHg 91%
    03:00 +8°C° 0 mm 2 m/S 599 mmHg 91%
    04:00 +8°C° 0 mm 2 m/S 599 mmHg 91%
    05:00 +10°C° 0 mm 2 m/S 600 mmHg 87%
    06:00 +12°C° 0 mm 2 m/S 600 mmHg 84%
    07:00 +14°C° 0 mm 2 m/S 601 mmHg 80%
    08:00 +16°C° 0 mm 2 m/S 602 mmHg 69%
    09:00 +18°C° 0 mm 2 m/S 603 mmHg 58%
    10:00 +21°C° 0 mm 2 m/S 604 mmHg 46%
    11:00 +23°C° 0 mm 2 m/S 604 mmHg 44%
    12:00 +23°C° 0 mm 2 m/S 604 mmHg 42%
    13:00 +24°C° 0 mm 2 m/S 604 mmHg 40%
    14:00 +24°C° 0,1 mm 2 m/S 604 mmHg 43%
    15:00 +23°C° 0,1 mm 2 m/S 603 mmHg 46%
    16:00 +23°C° 0,1 mm 2 m/S 603 mmHg 49%
    17:00 +20°C° 0,2 mm 2 m/S 602 mmHg 57%
    18:00 +19°C° 0,2 mm 2 m/S 602 mmHg 66%
    19:00 +17°C° 0,2 mm 2 m/S 601 mmHg 75%
    20:00 +16°C° 0 mm 2 m/S 601 mmHg 78%
    21:00 +14°C° 0 mm 2 m/S 600 mmHg 82%
    22:00 +12°C° 0 mm 3 m/S 600 mmHg 86%
    23:00 +12°C° 0 mm 3 m/S 600 mmHg 86%
    Mehr zeigen